This is the latest recevied weather packets stored in our database for station/object K5GTX. If no packets are shown the sender has not sent any weather packets the latest 10 day(s).
| Time | Temp. | Humidity | Pressure | Rain* | Wind** | Luminosity | Snow |
|---|---|---|---|---|---|---|---|
| 1777685341 | 15.56° C | 99% | 1023.6 hPa | 0 mm | - | 0 W/m² | - |
| 1777685039 | 15.56° C | 99% | 1023.6 hPa | 0 mm | - | 0 W/m² | - |
| 1777684736 | 16.11° C | 99% | 1023.5 hPa | 0 mm | - | 0 W/m² | - |
| 1777684432 | 16.11° C | 99% | 1023.4 hPa | 0 mm | - | 0 W/m² | - |
| 1777684129 | 16.11° C | 99% | 1023.4 hPa | 0 mm | - | 0 W/m² | - |
| 1777683826 | 16.11° C | 99% | 1023.2 hPa | 0 mm | - | 0 W/m² | - |
| 1777683523 | 16.11° C | 99% | 1023.3 hPa | 0 mm | - | 0 W/m² | - |
| 1777683221 | 16.11° C | 99% | 1023.2 hPa | 0 mm | - | 1 W/m² | - |
| 1777682918 | 16.11° C | 99% | 1023.1 hPa | 0 mm | - | 1 W/m² | - |
| 1777682614 | 16.67° C | 99% | 1023.2 hPa | 0 mm | - | 2 W/m² | - |
| 1777682312 | 16.67° C | 99% | 1023.1 hPa | 0 mm | - | 4 W/m² | - |
| 1777682009 | 16.67° C | 99% | 1022.9 hPa | 0 mm | - | 5 W/m² | - |
| 1777681705 | 16.67° C | 99% | 1023 hPa | 0 mm | - | 12 W/m² | - |
| 1777681402 | 17.22° C | 99% | 1023 hPa | 0 mm | - | 21 W/m² | - |
| 1777681099 | 17.22° C | 99% | 1022.9 hPa | 0 mm | - | 27 W/m² | - |
| 1777680797 | 17.22° C | 99% | 1022.7 hPa | 0 mm | - | 24 W/m² | - |
| 1777680495 | 17.22° C | 99% | 1022.4 hPa | 0 mm | - | 23 W/m² | - |
| 1777680193 | 17.22° C | 99% | 1022.7 hPa | 0 mm | - | 27 W/m² | - |
| 1777679888 | 17.22° C | 99% | 1022.4 hPa | 0 mm | - | 26 W/m² | - |
| 1777679584 | 17.78° C | 99% | 1022.3 hPa | 0 mm | - | 31 W/m² | - |
| 1777679280 | 17.78° C | 99% | 1022.3 hPa | 0 mm | - | 35 W/m² | - |
| 1777678977 | 17.78° C | 99% | 1022.3 hPa | 0 mm | - | 44 W/m² | - |
| 1777678676 | 17.78° C | 99% | 1022.2 hPa | 0 mm | - | 55 W/m² | - |
| 1777678373 | 17.78° C | 99% | 1022.2 hPa | 0 mm | - | 72 W/m² | - |
| 1777678068 | 17.78° C | 99% | 1022.2 hPa | 0 mm | - | 76 W/m² | - |
* Rain latest hour (hover to see other rain measurements)
** Current wind speed in m/s (hover to see current wind gust speed)